sat.trackr.live / text

‹ back to catalog

BANDWAGON-4 OBJECT Q

NORAD 66307 · 2025-248Q

PAYLOAD ACTIVE UNKNOWN

§ Identity

Operator
Country
TBD
Launch date
2025-11-02
Launch site
AFETR
Launch vehicle
Mass (kg)
RCS (m²)

External: N2YO · Heavens-Above · Gunter

§ Orbital elements

Epoch: 2026-09-20T04:48:53.470368Z

Period
94.13 min
Inclination
45.3912°
Eccentricity
0.0009853
Mean motion
15.29832346 rev/d
Perigee alt
469.6 km
Apogee alt
483.1 km
Semi-major
6,854.5 km
B*
3.7065e-4
RAAN
318.0685°
Arg perigee
254.6803°
Mean anomaly
105.2999°
Rev number
4,914

§ Raw data

BANDWAGON-4 OBJECT Q1 66307U 25248Q   26263.20061887  .00010629  00000+0  37065-3 0  99952 66307  45.3912 318.0685 0009853 254.6803 105.2999 15.29832346 49148

JSON: /api/v1/satellites/66307 · /tle

For live sub-satellite position, see the globe view (requires WebGL).

§ Visibility from observer

Set your observer location to see the next 7 days of passes ≥ 10°. The values pass through the URL so the page stays shareable.

No JS? Fill the form by hand. The geolocation button needs JavaScript.